Location: New Town
(33.2710°N, 90.7534°W)
Time: 02:44:48
(UTC+00:00)

Transit 2A Rocket - All Passes

Search period start: 12 May 2021 00:00
Search period end: 22 May 2021 00:00
Orbit: 594 x 909 km, 66.7° (Epoch: 11 May)

Date Brightness Start Highest point End Pass type
(mag) Time Alt. Az. Time Alt. Az. Time Alt. Az.
12 May - 00:54:51 10° NNW 00:59:33 53° ENE 01:04:41 10° SE daylight
12 May - 02:39:04 10° WNW 02:41:45 15° WSW 02:44:34 10° SW visible
12 May - 15:25:57 10° SSW 15:30:25 79° WNW 15:34:45 10° NNE daylight
13 May - 00:12:42 10° N 00:16:52 29° ENE 00:21:20 10° ESE daylight
13 May - 01:55:08 10° NW 01:59:18 28° WSW 02:03:46 10° SSW visible
13 May - 14:43:33 10° S 14:47:52 49° ESE 14:52:03 10° NE daylight
13 May - 16:28:30 10° W 16:30:36 13° NW 16:32:43 10° NNW daylight
13 May - 23:31:02 10° NNE 23:34:04 16° NE 23:37:14 10° E daylight
14 May - 01:12:03 10° NW 01:16:47 53° WSW 01:21:58 10° S visible
14 May - 14:01:49 10° SSE 14:05:24 24° ESE 14:08:52 10° NE daylight
14 May - 15:44:08 10° WSW 15:47:46 25° WNW 15:51:20 10° N daylight
15 May - 00:29:22 10° NNW 00:34:13 81° ENE 00:39:33 10° SSE daylight
15 May - 13:21:35 10° SE 13:23:00 11° ESE 13:24:24 10° E daylight
15 May - 15:00:46 10° SW 15:05:04 48° WNW 15:09:14 10° NNE daylight
15 May - 23:46:59 10° N 23:51:35 43° ENE 23:56:34 10° SE daylight
16 May - 01:30:26 10° WNW 01:33:52 19° WSW 01:37:29 10° SSW visible
16 May - 14:18:00 10° SSW 14:22:28 80° ESE 14:26:46 10° NNE daylight
16 May - 23:04:57 10° N 23:08:52 24° ENE 23:13:01 10° ESE daylight
17 May - 00:46:55 10° NW 00:51:23 35° WSW 00:56:14 10° S daylight
17 May - 13:35:49 10° S 13:39:56 37° ESE 13:43:55 10° NE daylight
17 May - 15:19:43 10° W 15:22:32 16° NW 15:25:18 10° NNW daylight
17 May - 22:23:37 10° NNE 22:26:00 13° NE 22:28:29 10° E daylight
18 May - 00:03:59 10° NNW 00:08:51 68° WSW 00:14:11 10° SSE daylight
18 May - 12:54:26 10° SSE 12:57:29 18° ESE 13:00:28 10° ENE daylight
18 May - 14:35:50 10° WSW 14:39:44 31° WNW 14:43:35 10° N daylight
18 May - 23:21:25 10° NNW 23:26:16 65° ENE 23:31:34 10° SE daylight
19 May - 01:06:24 10° W 01:08:23 12° WSW 01:10:26 10° SW daylight
19 May - 13:52:41 10° SW 13:57:04 63° WNW 14:01:20 10° NNE daylight
19 May - 22:39:09 10° N 22:43:36 35° ENE 22:48:24 10° SE daylight
20 May - 00:22:01 10° WNW 00:25:58 24° WSW 00:30:12 10° SSW daylight
20 May - 13:10:07 10° SSW 13:14:29 61° ESE 13:18:44 10° NNE daylight
20 May - 14:56:11 10° WNW 14:57:21 11° NW 14:58:31 10° NW daylight
20 May - 21:57:16 10° N 22:00:49 20° NE 22:04:34 10° ESE daylight
20 May - 23:38:45 10° NW 23:43:28 44° WSW 23:48:35 10° S daylight
21 May - 12:28:11 10° S 12:32:00 29° ESE 12:35:43 10° NE daylight
21 May - 14:11:12 10° WSW 14:14:28 20° NW 14:17:43 10° N daylight
21 May - 21:16:35 10° NE 21:17:55 11° NE 21:19:16 10° ENE daylight
21 May - 22:55:58 10° NNW 23:00:54 85° WSW 23:06:20 10° SSE daylight
